Date,TemperatureHighF,TemperatureAvgF,TemperatureLowF,DewpointHighF,DewpointAvgF,DewpointLowF,HumidityHigh,HumidityAvg,HumidityLow,PressureMaxIn,PressureMinIn,WindSpeedMaxMPH,WindSpeedAvgMPH,GustSpeedMaxMPH,PrecipitationSumIn
2013-1-1,44,41,34,42,38,30,93,91,86,30.18,30.00,8,3,16,0.50
2013-1-2,36,32,28,30,25,24,86,77,62,30.26,30.15,5,2,11,0.01
2013-1-3,44,33,25,27,24,21,87,69,40,30.41,30.23,4,1,10,0.00
2013-1-4,48,35,24,31,26,21,90,72,44,30.49,30.38,3,0,8,0.00
2013-1-5,47,37,26,35,29,23,90,73,50,30.40,30.25,4,1,9,0.00
2013-1-6,53,41,32,39,34,26,92,75,47,30.37,30.19,8,2,16,0.00
2013-1-7,51,36,25,29,26,22,87,69,36,30.44,30.21,6,1,12,0.00
2013-1-8,62,46,29,42,35,25,88,68,45,30.29,30.18,6,1,11,0.00
2013-1-9,57,54,50,54,50,42,91,86,63,30.37,30.22,8,3,16,0.55
2013-1-10,61,57,54,59,55,52,94,93,91,30.34,30.19,9,5,15,0.61
2013-1-14,32,31,30,28,27,26,87,86,85,30.30,30.23,4,3,10,0.01
2013-1-15,33,31,28,31,28,24,92,88,84,30.24,30.03,8,3,15,0.01
2013-1-16,34,33,32,32,31,29,92,91,89,30.14,30.02,0,0,0,0.01
2013-1-17,49,38,32,38,32,29,92,82,61,30.45,30.08,10,2,18,0.01
2013-1-18,55,39,27,33,28,24,90,67,33,30.57,30.35,4,1,7,0.01
2013-1-19,60,45,32,35,31,27,84,61,31,30.36,30.16,7,2,17,0.00
2013-1-20,60,46,33,37,31,23,89,59,31,30.26,30.15,8,2,14,0.00
2013-1-21,41,34,27,24,19,16,71,54,37,30.33,30.16,7,3,17,0.00
2013-1-22,38,31,24,20,16,8,78,54,37,30.42,30.29,6,2,11,0.00
2013-1-23,58,42,27,39,29,18,81,60,42,30.35,30.16,6,1,13,0.00
2013-1-24,40,38,33,34,21,13,86,53,32,30.44,30.20,12,7,22,0.00
2013-1-25,47,38,31,43,31,17,91,77,44,30.25,30.01,7,2,14,0.22
2013-1-26,53,39,28,38,31,26,93,75,43,30.33,30.22,4,1,12,0.01
2013-1-27,60,49,41,45,40,31,86,70,58,30.29,30.15,8,3,16,0.02
2013-1-28,72,60,54,59,50,41,86,71,60,30.20,30.08,8,5,18,0.38